This demonstration page uses our WeatherBlox Daily Observations layout. Learn more.

Left ArrowRight Arrow

38.89511, -77.03637

Hourly Observations for January 15, 2022

Temp ( °F °C ) Dew Point ( °F °C ) Humidity (%) Winds ( mph kmh ) Pressure ( in mb ) Visibility ( mi km ) Precip ( " mm )
12:52 am 00:52 Mostly Clear 33 0.6 17 -8.3 52 52 N 16 26 30.09 1019 10 16 N/A
1:52 am 01:52 Partly Cloudy 31 -0.6 15 -9.4 52 52 N 17 28 30.13 1020 10 16 N/A
2:52 am 02:52 Partly Cloudy 30 -1.1 12 -11.1 47 47 N 20 31 30.15 1021 10 16 N/A
3:52 am 03:52 Mostly Clear 28 -2.2 11 -11.7 49 49 N 18 30 30.16 1021 10 16 N/A
4:52 am 04:52 Mostly Clear 27 -2.8 8 -13.3 45 45 N 17 28 30.18 1022 10 16 N/A
5:52 am 05:52 Mostly Clear 25 -3.9 6 -14.4 44 44 N 18 30 30.20 1023 10 16 N/A
6:52 am 06:52 Mostly Clear 24 -4.4 3 -16.1 40 40 N 17 28 30.24 1024 10 16 N/A
7:52 am 07:52 Mostly Cloudy 23 -5 2 -16.7 40 40 N 17 28 30.27 1025 10 16 N/A
8:52 am 08:52 Mostly Cloudy 23 -5 2 -16.7 40 40 N 14 22 30.30 1026 10 16 N/A
9:52 am 09:52 Mostly Cloudy 24 -4.4 1 -17.2 36 36 N 14 22 30.34 1027 10 16 N/A
10:52 am 10:52 Mostly Cloudy 25 -3.9 N/A 33 33 N 15 24 30.35 1028 10 16 N/A
11:52 am 11:52 Mostly Cloudy 25 -3.9 -2 -18.9 30 30 N 10 17 30.35 1028 10 16 N/A
12:52 pm 12:52 Mostly Cloudy 26 -3.3 -1 -18.3 31 31 NNW 12 19 30.35 1028 10 16 N/A
1:52 pm 13:52 Mostly Cloudy 27 -2.8 N/A 31 31 N 12 19 30.33 1027 10 16 N/A
2:52 pm 14:52 Mostly Cloudy 27 -2.8 N/A 31 31 NNW 9 15 30.33 1027 10 16 N/A
3:52 pm 15:52 Cloudy 26 -3.3 N/A 32 32 NNE 8 13 30.34 1027 10 16 N/A
4:52 pm 16:52 Cloudy 26 -3.3 1 -17.2 34 34 NNW 10 17 30.35 1028 10 16 N/A
5:52 pm 17:52 Cloudy 26 -3.3 1 -17.2 34 34 N 9 15 30.37 1028 10 16 N/A
6:52 pm 18:52 Mostly Cloudy 25 -3.9 2 -16.7 37 37 N 8 13 30.37 1029 10 16 N/A
7:52 pm 19:52 Partly Cloudy 23 -5 3 -16.1 42 42 N 9 15 30.40 1029 10 16 N/A
8:52 pm 20:52 Mostly Clear 23 -5 1 -17.2 38 38 NNE 13 20 30.40 1030 10 16 N/A
9:52 pm 21:52 Mostly Clear 22 -5.6 1 -17.2 40 40 NNE 12 19 30.40 1030 10 16 N/A
10:52 pm 22:52 Mostly Clear 21 -6.1 1 -17.2 41 41 NE 10 17 30.40 1030 10 16 N/A
11:52 pm 23:52 Mostly Cloudy 20 -6.7 1 -17.2 43 43 NE 7 11 30.40 1030 10 16 N/A

Powered by AerisWeather